Weather Roundup
Issued by NWS

Home | Current Version | Previous Version | Text Only | Print | Product List | Glossary On
Versions: 1 2 3 4 5 6 7 8 9 10 11 12 13 14 15 16 17 18 19 20 21 22 23 24 25 26 27 28 29 30 31 32 33 34 35 36 37 38 39 40 41 42 43 44 45 46 47 48 49 50
574
NZUS93 KARX 210059
HRRWXR

CURRENT HOURLY OBSERVATIONS ACROSS
MUCH OF THE UPPER MISSISSIPPI VALLEY
NATIONAL WEATHER SERVICE LA CROSSE WI
800 PM CDT FRI APR 20 2018


...SOUTHEAST MINNESOTA...


CITY           SKY/WX    TMP DP  RH WIND       PRES   REMARKS
ROCHESTER      FAIR      41  28  60 W3        30.43S
ROCHESTER/MAYO FAIR      46  25  44 W3        30.44S
WINONA         FAIR      48  25  40 CALM      30.42S
AUSTIN         FAIR      39  25  56 NE3       30.43S
ALBERT LEA     FAIR      39  21  48 CALM      30.42F
DODGE CENTER   FAIR      39  27  60 S3        30.43S
PRESTON        FAIR      42  21  43 CALM      30.43S
OWATONNA       FAIR      43  28  56 CALM      30.43S
FARIBAULT      NOT AVBL
$$

...ELSEWHERE IN MINNESOTA...


CITY           SKY/WX    TMP DP  RH WIND       PRES   REMARKS
MINNEAPOLIS    CLOUDY    48  22  35 S5        30.43S
INTNL FALLS    FAIR      52  21  29 NE3       30.34R
DULUTH         FAIR      50  25  37 SW7       30.38R
RED WING       FAIR      46  18  31 CALM      30.43S
REDWOOD FALLS  CLOUDY    39  32  76 S6        30.43S WCI  35
MANKATO        FAIR      42  25  50 S5        30.44S
WORTHINGTON    CLOUDY    36  31  82 E7        30.40F WCI  30
FAIRMONT       CLOUDY    36  28  73 E5        30.42F WCI  32
$$

...SOUTHWEST WISCONSIN...


CITY           SKY/WX    TMP DP  RH WIND       PRES   REMARKS
LA CROSSE      FAIR      48  28  46 W5        30.42R
PRAIRIE DU CHI FAIR      55  26  32 CALM      30.40S
BOSCOBEL       FAIR      48  31  51 CALM      30.42R
LONE ROCK      NOT AVBL
PLATTEVILLE    FAIR      54  27  36 CALM      30.41R
FORT MC COY    FAIR      46  20  34 CALM      30.44R
CAMP DOUGLAS   FAIR      41  22  46 CALM      30.42R
MAUSTON-NEW LI FAIR      44  25  48 CALM      30.41R
VIROQUA        FAIR      46  23  40 CALM      30.41S
WIS DELLS      FAIR      46  18  33 CALM      30.41S
$$

...ELSEWHERE IN WISCONSIN...


CITY           SKY/WX    TMP DP  RH WIND       PRES   REMARKS
MILWAUKEE      MOCLDY    45  18  34 SE5       30.44S
MADISON        MOCLDY    45  25  45 N3        30.42R
GREEN BAY      FAIR      47  22  37 SW5       30.42S
EAU CLAIRE     NOT AVBL
BLACK RVR FLS  FAIR      48  11  22 SW3       30.42R
MEDFORD        FAIR      44  19  36 CALM      30.40S
WAUSAU         FAIR      47  13  25 CALM      30.39S
WIS RAPIDS     FAIR      45  16  31 CALM      30.42R
MARSHFIELD     FAIR      48  16  27 CALM      30.40R
RICE LAKE      FAIR      47  19  33 W3        30.43R
$$

...NORTHEAST IOWA...


CITY           SKY/WX    TMP DP  RH WIND       PRES   REMARKS
WATERLOO       FAIR      47  36  65 N9        30.40R
DUBUQUE        FAIR      50  27  40 E6        30.40R
DECORAH        FAIR      45  27  49 N6        30.41S
MASON CITY     CLOUDY    36  30  79 NE7       30.43R WCI  30
CHARLES CITY   FAIR      41  30  65 NE8       30.43R
OELWEIN        FAIR      48  37  66 N10       30.41R
$$

...ELSEWHERE IN IOWA...


CITY           SKY/WX    TMP DP  RH WIND       PRES   REMARKS
DES MOINES     CLOUDY    57  25  29 E5        30.36R
IOWA CITY      FAIR      56  17  21 SE3       30.40R
FORT DODGE     CLOUDY    44  38  79 NE9       30.38F
MARSHALLTOWN   CLOUDY    50  34  54 E6        30.37S
CEDAR RAPIDS   FAIR      53  22  29 E3        30.38R
$$

...NORTHERN ILLINOIS...


CITY           SKY/WX    TMP DP  RH WIND       PRES   REMARKS
CHICAGO-OHARE  MOCLDY    50  10  20 E8        30.42S
CHICAGO-MIDWAY MOCLDY    50  11  20 E7        30.43S
MOLINE         FAIR      52  26  36 SE3       30.38R
ROCKFORD       MOCLDY    53  19  26 CALM      30.44R
PEORIA         FAIR      58  21  24 CALM      30.39R
$$

NOTE: "FAIR" INDICATES FEW OR NO CLOUDS BELOW 12,000 FEET WITH NO
SIGNIFICANT WEATHER AND/OR OBSTRUCTIONS TO VISIBILITY. WIND
SPEEDS ARE IN MILES-PER-HOUR.




USA.gov is the U.S. government's official web portal to all federal, state and local government web resources and services.